Regional Weather Roundup
Issued by NWS

Home | Current Version | Previous Version | Graphics & Text | Print | Product List | Glossary On
Versions: 1 2 3 4 5 6 7 8 9 10 11 12 13 14 15 16 17 18 19 20 21 22 23 24 25 26 27 28 29 30 31 32 33 34 35 36 37 38 39 40 41 42 43 44 45 46 47 48 49 50
000
ASUS43 KOAX 281110
RWRNE

WEATHER ROUNDUP FOR NEBRASKA
NATIONAL WEATHER SERVICE OMAHA NE
500 AM CST FRI NOV 28 2014

NOTES: SATELLITE DATA IS BEING USED TO AUGMENT CLOUD COVER ABOVE
       12000 FEET.
       "FAIR" INDICATES FEW OR NO CLOUDS BELOW 12,000 FEET WITH NO
       SIGNIFICANT WEATHER AND/OR OBSTRUCTIONS TO VISIBILITY.

  * THESE STATIONS DO NOT REPORT WEATHER SUCH AS RAIN...SNOW OR FOG.

NEZ001>004-019>022-054>056-281200-
NEBRASKA PANHANDLE

CITY           SKY/WX    TMP DP  RH WIND       PRES   REMARKS
SCOTTSBLUFF    PTCLDY    33  25  72 E6        29.86F WCI  28
ALLIANCE       PTCLDY    28  23  81 SW5       29.85F WCI  23
CHADRON        CLEAR    N/A N/A N/A SW6       29.79
KIMBALL        MOCLDY    42  24  48 SW8       29.93S
SIDNEY         PTCLDY    35  25  66 W9        29.92  WCI  28
$$

NEZ057>060-069>072-079>082-281200-
SOUTHWEST NEBRASKA

CITY           SKY/WX    TMP DP  RH WIND       PRES   REMARKS
NORTH PLATTE   CLEAR     20  17  88 NW6       29.90F WCI  12
IMPERIAL       PTCLDY    39  24  55 W9        29.92F WCI  33
LEXINGTON      CLEAR     23  19  85 W5        29.90F WCI  17
MCCOOK           N/A     32  24  72 SW3       29.91
OGALLALA       CLEAR     26  24  92 SW5       29.91F WCI  20
$$

NEZ005>010-023>029-035>040-094-281200-
NORTH CENTRAL NEBRASKA

CITY           SKY/WX    TMP DP  RH WIND       PRES   REMARKS
VALENTINE      PTCLDY    33  27  78 SW6       29.80F WCI  28
AINSWORTH      PTCLDY    32  27  81 SW8       29.81F WCI  25
BROKEN BOW     PTCLDY    32  23  69 CALM      29.85F
O`NEILL        CLEAR     26  22  84 S6        29.81F WCI  19
ORD            CLEAR     17  14  88 CALM      29.85F
THEDFORD       CLEAR     30  26  86 W3        29.85F
$$

NEZ041-046>049-061>064-073>077-083>087-281200-
SOUTH CENTRAL NEBRASKA

CITY           SKY/WX    TMP DP  RH WIND       PRES   REMARKS
GRAND ISLAND   CLEAR     25  19  78 SW7       29.90F WCI  17
AURORA         CLEAR     25  19  77 SW6       29.90R WCI  18
HASTINGS       CLEAR     26  18  71 SW5       29.88F WCI  20
HEBRON         CLEAR     29  21  71 CALM      29.92F
HOLDREGE       FAIR      33  24  70 W8        29.89F WCI  25
KEARNEY *      PTCLDY    27  19  74 SW8       29.89F WCI  18
YORK           PTCLDY    25  19  80 SW7       29.90F WCI  17
$$

NEZ011>018-030>034-042>045-281200-
NORTHEAST NEBRASKA

CITY           SKY/WX    TMP DP  RH WIND       PRES   REMARKS
NORFOLK        CLEAR     26  19  74 S9        29.87F WCI  17
ALBION         CLEAR     26  18  72 CALM      29.87F
BLAIR          PTCLDY    29  23  78 S13       29.92F WCI  18
COLUMBUS *     CLEAR     27  18  69 CALM      29.90F
FREMONT        PTCLDY    28  22  79 SE8       29.93F WCI  20
TEKAMAH        PTCLDY    24  19  81 SE9       29.94F WCI  14
WAYNE          PTCLDY    23  19  83 S7        29.88F WCI  15
$$

NEZ050>053-065>068-078-088>093-281200-
SOUTHEAST NEBRASKA

CITY           SKY/WX    TMP DP  RH WIND       PRES   REMARKS
LINCOLN        CLEAR     29  20  69 S5        29.94F WCI  24
OMAHA EPPLEY   PTCLDY    28  22  78 S12       29.97F WCI  18
BEATRICE       CLEAR     30  22  73 S8        29.93F WCI  22
FALLS CITY     CLEAR     31  23  72 S10       29.99F WCI  22
NEBRASKA CITY  PTCLDY    28  21  75 S10       29.96F WCI  19
PLATTSMOUTH    PTCLDY    28  22  76 SE13      29.94F WCI  17
$$

NEZ044-045-051>053-067-281200-
OMAHA AREA

CITY           SKY/WX    TMP DP  RH WIND       PRES   REMARKS
OMAHA EPPLEY   PTCLDY    28  22  78 S12       29.97F WCI  18
BLAIR          PTCLDY    29  23  78 S13       29.92F WCI  18
FREMONT        PTCLDY    28  22  79 SE8       29.93F WCI  20
MILLARD        PTCLDY    28  22  79 SE5       29.95F WCI  23
OFFUTT AFB     PTCLDY    28  22  78 S5        29.95F WCI  23
PLATTSMOUTH    PTCLDY    28  22  76 SE13      29.94F WCI  17
WAHOO          FAIR      22  19  86 S7        29.93F WCI  14
$$


USA.gov is the U.S. government's official web portal to all federal, state and local government web resources and services.